Starlink 31305

operational
NORAD ID: 59232 Int'l Des: 2024-049 Owner: SPXS Country: US Constellation: starlink
LEOCIRCULAR

About Starlink 31305

Description loading...

Live Position

Loading 3D Globe...

Upcoming Passes

Altitude History

Altitude vs Time

uPlot chart will show altitude changes over time

Two-Line Element Set

1 59232U 24049B 26015.23764192 .00000367 00000-0 22875-4 0 9992
2 59232 43.0013 85.1828 0001105 248.5500 111.5234 15.27579826104214
Epoch: Jan 15, 2026 • Age: 22 hours

Current Status

Altitude 491.6 km
Velocity 7.62 km/s
Sub-Earth Point -32.57°S, 130.17°W
Launch Date Mar 16, 2024
Age 1.8 years
Type internet

Technical Details

Classification Payload
Mass 730.00 kg
Dry Mass 700.00 kg
Total Mass 730.00 kg
Length 0.30 m
Diameter 4.10 m
Span 29.00 m
Shape Box + pan
Manufacturer SPXS
Bus Type Starlink V2M
Phase Status In Orbit
Owner/State SPXS/US

Large Constellations

Loading constellations...